Flag for U.S.A. Weather past 2 weeks in Port St. Lucie, Florida, U.S.A.

Now
73 °F

Sunny.


Feels Like: 70 °F
Forecast: 72 / 91 °F
Wind: 13 mph from Southwest

Location: Witham Field Airport

Current Time: Apr 26, 2015 at 8:33:29 AM

Latest Report: Apr 26, 2015 at 7:47 AM


Visibility: 7 mi

Pressure: 29.82 "Hg

Humidity: 94%

Dew point: 72 °F

Location of Port St. LucieLocation

Historic Weather in Port St. Lucie — Graph

°F

Port St. Lucie temperature yesterday

Maximum temperature yesterday: 90 °F (at 3:47 PM)
Minimum temperature yesterday: 72 °F (at 5:35 AM)
Average temperature yesterday: 78 °F

Past Weeks' High & Low Weather Summary

 TemperatureHumidityPressure
High90 °F (Apr 18, 4:47 PM)100% (Apr 15, 6:15 AM)30.20 "Hg (Apr 15, 6:15 AM)
Low68 °F (Apr 15, 6:15 AM)25% (Apr 15, 7:55 AM)29.78 "Hg (Apr 26, 4:55 AM)
Average75 °F84%30.02 "Hg
* Reported Apr 11 6:15 AM — Apr 26 6:47 AM, Port St. Lucie, Weather by CustomWeather, © 2015

Note: Actual official high and low records may vary slightly from our data, if they occured in-between our weather recording intervals... More about our weather records

Advertising

Port St. Lucie weather history for previous 24 hours

 ConditionsComfort  
Time TempWeatherWind HumidityBarometerVisibility
6:47 AM
Sun, Apr 26
73 °FFog.13 mph94%29.80 "Hg5 mi
6:15 AM73 °FClear.8 mph94%29.79 "Hg10 mi
5:55 AM73 °FClear.8 mph94%29.79 "Hg10 mi
5:35 AM73 °FClear.9 mph94%29.78 "Hg10 mi
5:15 AM73 °FClear.9 mph94%29.79 "Hg10 mi
4:55 AM73 °FClear.8 mph94%29.78 "Hg10 mi
4:35 AM73 °FClear.9 mph94%29.79 "Hg10 mi
4:15 AM73 °FClear.12 mph94%29.79 "Hg10 mi
3:55 AM73 °FClear.12 mph94%29.79 "Hg10 mi
3:35 AM73 °FClear.10 mph94%29.79 "Hg10 mi
3:15 AM73 °FClear.9 mph94%29.80 "Hg10 mi
2:55 AM73 °FClear.9 mph94%29.81 "Hg10 mi
2:35 AM73 °FClear.6 mph89%29.84 "Hg10 mi
2:15 AM73 °FClear.8 mph89%29.85 "Hg10 mi
1:55 AM75 °FClear.7 mph83%29.86 "Hg10 mi
1:35 AM75 °FClear.9 mph83%29.87 "Hg10 mi
1:15 AM75 °FClear.10 mph83%29.88 "Hg10 mi
12:55 AM77 °FClear.9 mph74%29.89 "Hg10 mi
12:35 AM77 °FClear.9 mph79%29.89 "Hg10 mi
12:15 AM77 °FClear.9 mph79%29.89 "Hg10 mi
11:15 PM
Sat, Apr 25
77 °FClear.6 mph83%29.87 "Hg10 mi
10:55 PM77 °FClear.7 mph89%29.86 "Hg10 mi
10:35 PM77 °FClear.7 mph89%29.87 "Hg10 mi
10:15 PM77 °FClear.5 mph89%29.87 "Hg10 mi
9:55 PM77 °FClear.7 mph89%29.85 "Hg10 mi
9:35 PM79 °FClear.7 mph84%29.84 "Hg10 mi
9:15 PM79 °FClear.8 mph84%29.85 "Hg10 mi
8:55 PM79 °FClear.7 mph84%29.85 "Hg10 mi
8:35 PM79 °FSunny.7 mph84%29.85 "Hg10 mi
8:15 PM81 °FSunny.6 mph79%29.85 "Hg10 mi
7:55 PM81 °FSunny.7 mph79%29.84 "Hg10 mi
7:35 PM81 °FSunny.6 mph79%29.85 "Hg10 mi
7:15 PM81 °FSunny.5 mph79%29.85 "Hg10 mi
6:47 PM82 °FScattered clouds.8 mph74%29.85 "Hg7 mi
4:47 PM88 °FBroken clouds.10 mph52%29.85 "Hg7 mi
3:47 PM90 °FBroken clouds.10 mph49%29.87 "Hg7 mi
2:47 PM88 °FBroken clouds.10 mph52%29.89 "Hg7 mi
1:47 PM86 °FBroken clouds.10 mph59%29.93 "Hg7 mi
12:55 PM86 °FBroken clouds.9 mph55%29.94 "Hg7 mi
11:47 AM84 °FScattered clouds.9 mph58%29.95 "Hg7 mi
10:47 AM84 °FScattered clouds.9 mph58%29.96 "Hg7 mi
9:47 AM81 °FPassing clouds.9 mph66%29.96 "Hg10 mi
8:47 AM77 °FSunny.7 mph74%29.96 "Hg10 mi
Weather by CustomWeather, © 2015

See weather overviewHow to use our weather pages